[ hide orbit diagram ]
For accurate long-term ephemerides, please instead use our Horizons system.This orbit viewer was implemented using two-body methods, and hence should not be used for determining accurate long-term trajectories (over several years or decades) or planetary encounter circumstances.
Orbital Elements at Epoch 2459200.5 (2020-Dec-17.0) TDB
Reference: JPL 19 (heliocentric ecliptic J2000)
Element | Value | Uncertainty (1-sigma) | Units |
e | .09955424047095046 | 6.1598e-08 | |
a | 3.148640165716021 | 7.4445e-08 | au |
q | 2.835179685501835 | 1.9687e-07 | au |
i | 10.44303858299758 | 8.9829e-06 | deg |
node | 50.03873765650231 | 3.6564e-05 | deg |
peri | 307.3661475042422 | 5.8174e-05 | deg |
M | 124.9743494544138 | 4.4259e-05 | deg |
tp | 2458492.062800320495 (2019-Jan-08.56280032) | 0.00024869 | TDB |
period | 2040.71789929701 5.59 | 7.2375e-05 1.982e-07 | d yr |
n | .1764085080667021 | 6.2564e-09 | deg/d |
Q | 3.462100645930207 | 8.1857e-08 | au |
|
| | Orbit Determination Parameters
Additional Information
|
[ show covariance matrix ]
Physical Parameter Table
Parameter |
Symbol |
Value |
Units |
Sigma |
Reference |
Notes |
absolute magnitude |
H |
15.8 |
|
n/a |
MPO413646 |
|
|
543229 (2013 UC6) Discovered 2013-Oct-03 by Pan-STARRS 1 at Haleakala |
Reference: | Last Updated: 2020-01-27 |
|
|